Tracking 19562 objects as of 24-Mar-2019
HD Live streaming from Space Station
objects crossing your sky now

HISPASAT 1A

Track HISPASAT 1A now!
HISPASAT 1A is classified as:


NORAD ID: 22116
Int'l Code: 1992-060A
Perigee: 36,024.4 km
Apogee: 36,105.1 km
Inclination: 12.3 °
Period: 1,450.0 minutes
Semi major axis: 42435 km
RCS: 7.143 m2 (large)
Launch date: September 10, 1992
Source: Spain (SPN)
Launch site: FRENCH GUIANA (FRGUI)
aabbcc
Your satellite tracking list
Your tracking list is empty




NASA's NSSDC Master Catalog

Two Line Element Set (TLE):
1 22116U 92060A   19082.88521634 -.00000034 +00000-0 +00000-0 0  9994
2 22116 012.3124 029.5478 0009506 284.4980 269.5665 00.99312802093259
Source of the keplerian elements: AFSPC